Regional Weather Roundup
Issued by NWS Little Rock, AR

Home | Current Version | Previous Version | Graphics & Text | Print | Product List | Glossary On
Versions: 1 2 3 4 5 6 7 8 9 10 11 12 13 14 15 16 17 18 19 20 21 22 23 24 25 26 27 28 29 30 31 32 33 34 35 36 37 38 39 40 41 42 43 44 45 46 47 48 49 50
000
ASUS44 KLZK 252305
RWRLZK

WEATHER ROUNDUP FOR ARKANSAS
NATIONAL WEATHER SERVICE LITTLE ROCK AR
600 PM CDT SAT MAR 25 2017

NOTE: "FAIR" INDICATES FEW OR NO CLOUDS BELOW 12,000 FEET WITH NO
SIGNIFICANT WEATHER AND/OR OBSTRUCTIONS TO VISIBILITY.

ARZ001-003-010-029-260000-
NORTHWEST ARKANSAS

CITY           SKY/WX    TMP DP  RH WIND       PRES   REMARKS
FAYETTEVILLE   CLOUDY    47  46  97 W8        29.92S
FORT SMITH     CLOUDY    55  45  68 W12       29.92S
HARRISON       CLOUDY    50  46  86 W10G20    29.90R
BENTONVILLE    CLOUDY    46  45  93 W6        29.92R
ROGERS         LGT RAIN  47  45  93 W8        29.91S
SILOAM SPGS    CLOUDY    46  43  87 W7        29.92R
HIGHFILL       CLOUDY    48  46  93 W9        29.91S
SPRINGDALE     CLOUDY    46  46 100 W8G14     29.93R FOG
$$

ARZ004-005-016-260000-
NORTH CENTRAL ARKANSAS

CITY           SKY/WX    TMP DP  RH WIND       PRES   REMARKS
BATESVILLE     PTSUNNY   64  48  55 SW13G18   29.86S
FLIPPIN        CLOUDY    55  45  67 W16       29.86R
MTN HOME       CLOUDY    54  47  77 NW10G17   29.86R
$$

ARZ040-041-260000-
WEST CENTRAL ARKANSAS

CITY           SKY/WX    TMP DP  RH WIND       PRES   REMARKS
MENA           MOSUNNY   68  50  52 W10       29.89R
MOUNT IDA      MOSUNNY   67  49  52 N3        29.85S
$$

ARZ009-017-025-026-028-260000-
NORTHEAST ARKANSAS

CITY           SKY/WX    TMP DP  RH WIND       PRES   REMARKS
CORNING        FAIR      66  54  63 SW18G26   29.83S
JONESBORO      CLOUDY    66  51  58 W13G18    29.85R
NEWPORT        PTSUNNY   66  51  58 W8        29.86R
WALNUT RIDGE   SUNNY     66  48  52 SW3G22    29.84R
BLYTHEVILLE    LGT RAIN  63  58  83 SW13G23   29.85S
$$

ARZ022-023-033-042-044-260000-
CENTRAL ARKANSAS

CITY           SKY/WX    TMP DP  RH WIND       PRES   REMARKS
LITTLE ROCK    CLOUDY    64  53  67 NW9       29.87R
N LITTLE ROCK    N/A     63  53  70 NW6       29.88R
JACKSONVILLE   CLOUDY    65  53  64 NW6       29.87R
CONWAY           N/A     61  52  72 NW14      29.88R
SEARCY         CLOUDY    64  54  69 W8        29.88R
HOT SPRINGS    CLOUDY    67  50  54 W6        29.88R
RUSSELLVILLE   CLOUDY    56  47  71 NW10      29.91S
CLINTON        PTSUNNY   59  48  67 SW15      29.88S
$$

ARZ036-260000-
EAST ARKANSAS

CITY           SKY/WX    TMP DP  RH WIND       PRES   REMARKS
WEST MEMPHIS   CLOUDY    68  61  78 S17       29.85S
$$

ARZ050-053-066-070-073-260000-
SOUTHWEST ARKANSAS

CITY           SKY/WX    TMP DP  RH WIND       PRES   REMARKS
ARKADELPHIA    FAIR      70  53  54 SW9       29.88F
CAMDEN         MOSUNNY   72  48  43 W10       29.88F
TEXARKANA      MOSUNNY   69  50  50 SW9       29.89S
EL DORADO      SUNNY     72  50  45 W10       29.89F
DE QUEEN       MOSUNNY   68  51  54 W13       29.87S
$$

ARZ056-057-069-260000-
SOUTHEAST ARKANSAS

CITY           SKY/WX    TMP DP  RH WIND       PRES   REMARKS
PINE BLUFF     MOSUNNY   70  50  49 W9        29.88R
STUTTGART      MOSUNNY   70  48  46 SW14      29.88S
MONTICELLO     MOSUNNY   73  49  42 W8        29.88R

$$





USA.gov is the U.S. government's official web portal to all federal, state and local government web resources and services.